Time,TemperatureF,DewpointF,PressureIn,WindDirection,WindDirectionDegrees,WindSpeedMPH,WindSpeedGustMPH,Humidity,HourlyPrecipIn,Conditions,Clouds,dailyrainin,SoftwareType,DateUTC
2013-05-01 00:02:00,69.0,57.0,29.91,SE,146,1.0,5.0,66,0.00,,,0.00,,2013-05-01 05:02:00,
2013-05-01 00:11:00,69.0,57.0,29.91,SE,146,1.0,5.0,66,0.00,,,0.00,,2013-05-01 05:11:00,
2013-05-01 00:21:00,70.0,58.0,29.91,SSE,156,2.0,6.0,65,0.00,,,0.00,,2013-05-01 05:21:00,
2013-05-01 00:32:00,70.0,58.0,29.91,SSE,151,3.0,14.0,65,0.00,,,0.00,,2013-05-01 05:32:00,
2013-05-01 00:41:00,70.0,58.0,29.91,SSE,151,3.0,14.0,65,0.00,,,0.00,,2013-05-01 05:41:00,
2013-05-01 00:52:00,70.0,58.0,29.91,SSE,163,2.0,10.0,65,0.00,,,0.00,,2013-05-01 05:52:00,
2013-05-01 01:02:00,69.0,57.0,29.91,SSE,163,5.0,9.0,65,0.00,,,0.00,,2013-05-01 06:02:00,
2013-05-01 01:11:00,69.0,57.0,29.91,SSE,163,5.0,9.0,65,0.00,,,0.00,,2013-05-01 06:11:00,
2013-05-01 01:22:00,69.0,57.0,29.92,SE,144,0.0,9.0,66,0.00,,,0.00,,2013-05-01 06:22:00,
2013-05-01 01:32:00,69.0,57.0,29.92,SE,146,2.0,3.0,66,0.00,,,0.00,,2013-05-01 06:32:00,
2013-05-01 01:42:00,69.0,57.0,29.92,SE,146,2.0,3.0,66,0.00,,,0.00,,2013-05-01 06:42:00,
2013-05-01 01:52:00,68.0,57.0,29.92,ESE,105,0.0,3.0,68,0.00,,,0.00,,2013-05-01 06:52:00,
2013-05-01 02:01:00,68.0,57.0,29.93,ESE,107,0.0,5.0,68,0.00,,,0.00,,2013-05-01 07:01:00,
2013-05-01 02:11:00,68.0,57.0,29.93,ESE,107,0.0,5.0,68,0.00,,,0.00,,2013-05-01 07:11:00,
2013-05-01 02:21:00,67.0,56.0,29.93,SSE,151,2.0,8.0,69,0.00,,,0.00,,2013-05-01 07:21:00,
2013-05-01 02:32:00,66.0,56.0,29.93,SSE,161,3.0,6.0,70,0.00,,,0.00,,2013-05-01 07:32:00,
2013-05-01 02:42:00,66.0,56.0,29.93,SSE,161,3.0,6.0,70,0.00,,,0.00,,2013-05-01 07:42:00,
2013-05-01 02:52:00,66.0,56.0,29.93,SSE,161,2.0,3.0,71,0.00,,,0.00,,2013-05-01 07:52:00,
2013-05-01 03:01:00,65.0,55.0,29.93,SSE,161,3.0,5.0,71,0.00,,,0.00,,2013-05-01 08:01:00,
2013-05-01 03:11:00,65.0,55.0,29.93,SSE,161,3.0,5.0,71,0.00,,,0.00,,2013-05-01 08:11:00,
2013-05-01 03:21:00,65.0,55.0,29.94,SSE,152,2.0,8.0,71,0.00,,,0.00,,2013-05-01 08:21:00,
2013-05-01 03:31:00,65.0,55.0,29.94,SSE,152,3.0,5.0,71,0.00,,,0.00,,2013-05-01 08:31:00,
2013-05-01 03:42:00,65.0,55.0,29.94,SSE,152,3.0,5.0,71,0.00,,,0.00,,2013-05-01 08:42:00,
2013-05-01 03:53:00,65.0,55.0,29.95,SSE,157,2.0,8.0,71,0.00,,,0.00,,2013-05-01 08:53:00,
2013-05-01 04:01:00,64.0,54.0,29.95,SSE,158,2.0,3.0,71,0.00,,,0.00,,2013-05-01 09:01:00,
2013-05-01 04:11:00,64.0,54.0,29.95,SSE,158,2.0,3.0,71,0.00,,,0.00,,2013-05-01 09:11:00,
2013-05-01 04:21:00,64.0,55.0,29.96,SSE,158,1.0,5.0,72,0.00,,,0.00,,2013-05-01 09:21:00,
2013-05-01 04:33:00,63.0,54.0,29.96,SSE,158,0.0,1.0,73,0.00,,,0.00,,2013-05-01 09:33:00,
2013-05-01 04:42:00,63.0,54.0,29.96,SSE,158,0.0,1.0,73,0.00,,,0.00,,2013-05-01 09:42:00,
2013-05-01 04:53:00,62.0,54.0,29.97,SSE,158,0.0,0.0,74,0.00,,,0.00,,2013-05-01 09:53:00,
2013-05-01 05:02:00,61.0,53.0,29.97,SSE,158,0.0,0.0,75,0.00,,,0.00,,2013-05-01 10:02:00,
2013-05-01 05:12:00,61.0,53.0,29.97,SSE,158,0.0,0.0,75,0.00,,,0.00,,2013-05-01 10:12:00,
2013-05-01 05:22:00,61.0,54.0,29.97,SSE,158,0.0,0.0,77,0.00,,,0.00,,2013-05-01 10:22:00,
2013-05-01 05:33:00,60.0,53.0,29.98,SSE,158,0.0,0.0,77,0.00,,,0.00,,2013-05-01 10:33:00,
2013-05-01 05:42:00,60.0,53.0,29.98,SSE,158,0.0,0.0,77,0.00,,,0.00,,2013-05-01 10:42:00,
2013-05-01 05:53:00,60.0,53.0,29.99,SSE,158,0.0,3.0,79,0.00,,,0.00,,2013-05-01 10:53:00,
2013-05-01 06:02:00,59.0,52.0,29.99,SSE,158,0.0,0.0,79,0.00,,,0.00,,2013-05-01 11:02:00,
2013-05-01 06:11:00,59.0,52.0,29.99,SSE,158,0.0,0.0,79,0.00,,,0.00,,2013-05-01 11:11:00,
2013-05-01 06:22:00,58.0,52.0,30.01,SSE,158,0.0,0.0,80,0.00,,,0.00,,2013-05-01 11:22:00,
2013-05-01 06:32:00,58.0,52.0,30.01,SSE,158,0.0,3.0,81,0.00,,,0.00,,2013-05-01 11:32:00,
2013-05-01 06:42:00,58.0,52.0,30.01,SSE,158,0.0,3.0,81,0.00,,,0.00,,2013-05-01 11:42:00,
2013-05-01 06:52:00,58.0,53.0,30.02,SSE,158,0.0,1.0,82,0.00,,,0.00,,2013-05-01 11:52:00,
2013-05-01 07:01:00,59.0,54.0,30.02,SSE,158,0.0,1.0,82,0.00,,,0.00,,2013-05-01 12:01:00,
2013-05-01 07:11:00,60.0,54.0,30.02,SSE,158,0.0,1.0,80,0.00,,,0.00,,2013-05-01 12:11:00,
2013-05-01 07:21:00,60.0,54.0,30.02,SSE,158,0.0,1.0,80,0.00,,,0.00,,2013-05-01 12:21:00,
2013-05-01 07:31:00,62.0,54.0,30.03,SSE,155,2.0,6.0,76,0.00,,,0.00,,2013-05-01 12:31:00,
2013-05-01 07:41:00,62.0,54.0,30.03,SSE,155,2.0,6.0,76,0.00,,,0.00,,2013-05-01 12:41:00,
2013-05-01 07:52:00,64.0,54.0,30.03,SSE,165,3.0,8.0,71,0.00,,,0.00,,2013-05-01 12:52:00,
2013-05-01 08:01:00,65.0,55.0,30.03,SSE,159,3.0,6.0,69,0.00,,,0.00,,2013-05-01 13:01:00,
2013-05-01 08:11:00,65.0,55.0,30.03,SSE,159,3.0,6.0,69,0.00,,,0.00,,2013-05-01 13:11:00,
2013-05-01 08:21:00,66.0,54.0,30.03,SE,124,6.0,9.0,65,0.00,,,0.00,,2013-05-01 13:21:00,
2013-05-01 08:31:00,67.0,54.0,30.03,SSE,164,6.0,12.0,64,0.00,,,0.00,,2013-05-01 13:31:00,
2013-05-01 08:42:00,67.0,54.0,30.03,SSE,164,6.0,12.0,64,0.00,,,0.00,,2013-05-01 13:42:00,
2013-05-01 08:52:00,69.0,55.0,30.03,SE,130,3.0,10.0,62,0.00,,,0.00,,2013-05-01 13:52:00,
2013-05-01 09:02:00,69.0,55.0,30.03,SE,139,7.0,8.0,60,0.00,,,0.00,,2013-05-01 14:02:00,
2013-05-01 09:11:00,69.0,55.0,30.03,SE,139,7.0,8.0,60,0.00,,,0.00,,2013-05-01 14:11:00,
2013-05-01 09:21:00,71.0,55.0,30.03,SSE,147,5.0,12.0,58,0.00,,,0.00,,2013-05-01 14:21:00,
2013-05-01 09:32:00,72.0,55.0,30.03,East,92,6.0,6.0,56,0.00,,,0.00,,2013-05-01 14:32:00,
2013-05-01 09:42:00,72.0,55.0,30.03,East,92,6.0,6.0,56,0.00,,,0.00,,2013-05-01 14:42:00,
2013-05-01 09:52:00,74.0,55.0,30.03,ESE,114,4.0,10.0,52,0.00,,,0.00,,2013-05-01 14:52:00,
2013-05-01 10:01:00,74.0,55.0,30.03,South,176,10.0,16.0,51,0.00,,,0.00,,2013-05-01 15:01:00,
2013-05-01 10:11:00,74.0,55.0,30.03,South,176,10.0,16.0,51,0.00,,,0.00,,2013-05-01 15:11:00,
2013-05-01 10:21:00,76.0,56.0,30.04,SE,142,7.0,14.0,50,0.00,,,0.00,,2013-05-01 15:21:00,
2013-05-01 10:33:00,76.0,55.0,30.04,SE,140,1.0,15.0,49,0.00,,,0.00,,2013-05-01 15:33:00,
2013-05-01 10:43:00,76.0,55.0,30.04,SE,140,1.0,15.0,49,0.00,,,0.00,,2013-05-01 15:43:00,
2013-05-01 10:53:00,77.0,56.0,30.04,SSW,210,3.0,14.0,48,0.00,,,0.00,,2013-05-01 15:53:00,
2013-05-01 11:03:00,77.0,55.0,30.05,SSE,149,9.0,18.0,47,0.00,,,0.00,,2013-05-01 16:03:00,
2013-05-01 11:12:00,77.0,55.0,30.05,SSE,149,9.0,18.0,47,0.00,,,0.00,,2013-05-01 16:12:00,
2013-05-01 11:22:00,79.0,57.0,30.04,SSW,206,1.0,9.0,47,0.00,,,0.00,,2013-05-01 16:22:00,
2013-05-01 11:31:00,79.0,55.0,30.04,SSE,165,9.0,14.0,43,0.00,,,0.00,,2013-05-01 16:31:00,
2013-05-01 11:42:00,79.0,55.0,30.04,SSE,165,9.0,14.0,43,0.00,,,0.00,,2013-05-01 16:42:00,
2013-05-01 11:53:00,80.0,54.0,30.04,South,185,3.0,10.0,41,0.00,,,0.00,,2013-05-01 16:53:00,
2013-05-01 12:02:00,79.0,53.0,30.04,SSW,195,5.0,14.0,40,0.00,,,0.00,,2013-05-01 17:02:00,
2013-05-01 12:12:00,79.0,53.0,30.04,SSW,195,5.0,14.0,40,0.00,,,0.00,,2013-05-01 17:12:00,
2013-05-01 12:21:00,80.0,54.0,30.03,SSW,195,7.0,15.0,41,0.00,,,0.00,,2013-05-01 17:21:00,
2013-05-01 12:31:00,80.0,53.0,30.03,SE,146,12.0,20.0,40,0.00,,,0.00,,2013-05-01 17:31:00,
2013-05-01 12:42:00,80.0,53.0,30.03,SE,146,12.0,20.0,40,0.00,,,0.00,,2013-05-01 17:42:00,
2013-05-01 12:52:00,80.0,53.0,30.03,SSE,150,10.0,16.0,39,0.00,,,0.00,,2013-05-01 17:52:00,
2013-05-01 13:01:00,80.0,54.0,30.03,SSE,161,5.0,14.0,41,0.00,,,0.00,,2013-05-01 18:01:00,
2013-05-01 13:11:00,80.0,54.0,30.03,SSE,161,5.0,14.0,41,0.00,,,0.00,,2013-05-01 18:11:00,
2013-05-01 13:22:00,81.0,54.0,30.03,SE,134,5.0,8.0,40,0.00,,,0.00,,2013-05-01 18:22:00,
2013-05-01 13:32:00,80.0,53.0,30.03,SE,139,5.0,15.0,39,0.00,,,0.00,,2013-05-01 18:32:00,
2013-05-01 13:41:00,80.0,53.0,30.03,SE,139,5.0,15.0,39,0.00,,,0.00,,2013-05-01 18:41:00,
2013-05-01 13:52:00,81.0,54.0,30.03,SSW,205,5.0,14.0,39,0.00,,,0.00,,2013-05-01 18:52:00,
2013-05-01 14:02:00,81.0,52.0,30.03,SE,135,6.0,10.0,37,0.00,,,0.00,,2013-05-01 19:02:00,
2013-05-01 14:11:00,81.0,52.0,30.03,SE,135,6.0,10.0,37,0.00,,,0.00,,2013-05-01 19:11:00,
2013-05-01 14:22:00,81.0,52.0,30.03,SE,133,3.0,14.0,37,0.00,,,0.00,,2013-05-01 19:22:00,
2013-05-01 14:32:00,82.0,52.0,30.03,ESE,119,4.0,10.0,36,0.00,,,0.00,,2013-05-01 19:32:00,
2013-05-01 14:42:00,82.0,52.0,30.03,ESE,119,4.0,10.0,36,0.00,,,0.00,,2013-05-01 19:42:00,
2013-05-01 14:52:00,82.0,51.0,30.03,SSE,155,9.0,15.0,34,0.00,,,0.00,,2013-05-01 19:52:00,
2013-05-01 15:01:00,81.0,51.0,30.03,South,183,6.0,15.0,35,0.00,,,0.00,,2013-05-01 20:01:00,
2013-05-01 15:11:00,81.0,51.0,30.03,South,183,6.0,15.0,35,0.00,,,0.00,,2013-05-01 20:11:00,
2013-05-01 15:21:00,82.0,51.0,30.03,South,172,7.0,10.0,34,0.00,,,0.00,,2013-05-01 20:21:00,
2013-05-01 15:32:00,82.0,51.0,30.03,SSE,155,10.0,16.0,34,0.00,,,0.00,,2013-05-01 20:32:00,
2013-05-01 15:42:00,82.0,51.0,30.03,SSE,155,10.0,16.0,34,0.00,,,0.00,,2013-05-01 20:42:00,
2013-05-01 15:52:00,82.0,47.0,30.03,SE,141,14.0,20.0,29,0.00,,,0.00,,2013-05-01 20:52:00,
2013-05-01 16:01:00,82.0,48.0,30.03,SE,146,9.0,16.0,31,0.00,,,0.00,,2013-05-01 21:01:00,
2013-05-01 16:11:00,82.0,48.0,30.03,SE,146,9.0,16.0,31,0.00,,,0.00,,2013-05-01 21:11:00,
2013-05-01 16:22:00,82.0,49.0,30.03,SSE,155,5.0,21.0,32,0.00,,,0.00,,2013-05-01 21:22:00,
2013-05-01 16:32:00,82.0,48.0,30.03,East,94,7.0,18.0,31,0.00,,,0.00,,2013-05-01 21:32:00,
2013-05-01 16:43:00,82.0,48.0,30.03,East,94,7.0,18.0,31,0.00,,,0.00,,2013-05-01 21:43:00,
2013-05-01 16:53:00,82.0,50.0,30.03,SE,146,4.0,18.0,33,0.00,,,0.00,,2013-05-01 21:53:00,
2013-05-01 17:03:00,81.0,49.0,30.03,SSE,157,7.0,18.0,33,0.00,,,0.00,,2013-05-01 22:03:00,
2013-05-01 17:12:00,81.0,49.0,30.03,SSE,157,7.0,18.0,33,0.00,,,0.00,,2013-05-01 22:12:00,
2013-05-01 17:23:00,82.0,51.0,30.03,ESE,120,3.0,15.0,34,0.00,,,0.00,,2013-05-01 22:23:00,
2013-05-01 17:33:00,82.0,49.0,30.03,South,174,10.0,18.0,32,0.00,,,0.00,,2013-05-01 22:33:00,
2013-05-01 17:42:00,82.0,49.0,30.03,South,174,10.0,18.0,32,0.00,,,0.00,,2013-05-01 22:42:00,
2013-05-01 17:53:00,81.0,49.0,30.03,SE,127,7.0,15.0,33,0.00,,,0.00,,2013-05-01 22:53:00,
2013-05-01 18:02:00,81.0,50.0,30.03,SSE,147,6.0,14.0,34,0.00,,,0.00,,2013-05-01 23:02:00,
2013-05-01 18:12:00,81.0,50.0,30.03,SSE,147,6.0,14.0,34,0.00,,,0.00,,2013-05-01 23:12:00,
2013-05-01 18:21:00,81.0,51.0,30.03,SSE,168,3.0,15.0,35,0.00,,,0.00,,2013-05-01 23:21:00,
2013-05-01 18:32:00,80.0,51.0,30.03,SSE,150,1.0,5.0,36,0.00,,,0.00,,2013-05-01 23:32:00,
2013-05-01 18:42:00,80.0,51.0,30.03,SSE,150,1.0,5.0,36,0.00,,,0.00,,2013-05-01 23:42:00,
2013-05-01 18:52:00,80.0,51.0,30.03,SSE,147,1.0,10.0,37,0.00,,,0.00,,2013-05-01 23:52:00,
2013-05-01 19:01:00,80.0,53.0,30.03,SSW,204,1.0,5.0,39,0.00,,,0.00,,2013-05-02 00:01:00,
2013-05-01 19:11:00,80.0,53.0,30.03,SSW,204,1.0,5.0,39,0.00,,,0.00,,2013-05-02 00:11:00,
2013-05-01 19:21:00,79.0,52.0,30.03,South,173,0.0,3.0,39,0.00,,,0.00,,2013-05-02 00:21:00,
2013-05-01 19:32:00,78.0,52.0,30.03,South,173,0.0,3.0,40,0.00,,,0.00,,2013-05-02 00:32:00,
2013-05-01 19:41:00,78.0,52.0,30.03,South,173,0.0,3.0,40,0.00,,,0.00,,2013-05-02 00:41:00,
2013-05-01 19:52:00,77.0,53.0,30.03,South,173,0.0,1.0,43,0.00,,,0.00,,2013-05-02 00:52:00,
2013-05-01 20:01:00,76.0,54.0,30.03,South,173,0.0,0.0,46,0.00,,,0.00,,2013-05-02 01:01:00,
2013-05-01 20:11:00,76.0,54.0,30.03,South,173,0.0,0.0,46,0.00,,,0.00,,2013-05-02 01:11:00,
2013-05-01 20:21:00,74.0,54.0,30.03,South,173,0.0,1.0,50,0.00,,,0.00,,2013-05-02 01:21:00,
2013-05-01 20:32:00,73.0,54.0,30.03,South,173,0.0,1.0,52,0.00,,,0.00,,2013-05-02 01:32:00,
2013-05-01 20:42:00,73.0,54.0,30.03,South,173,0.0,1.0,52,0.00,,,0.00,,2013-05-02 01:42:00,
2013-05-01 20:52:00,71.0,54.0,30.04,South,173,0.0,0.0,56,0.00,,,0.00,,2013-05-02 01:52:00,
2013-05-01 21:01:00,70.0,54.0,30.04,South,173,0.0,0.0,56,0.00,,,0.00,,2013-05-02 02:01:00,
2013-05-01 21:11:00,70.0,54.0,30.04,South,173,0.0,0.0,56,0.00,,,0.00,,2013-05-02 02:11:00,
2013-05-01 21:21:00,69.0,55.0,30.05,South,173,0.0,0.0,60,0.00,,,0.00,,2013-05-02 02:21:00,
2013-05-01 21:32:00,69.0,55.0,30.05,South,173,0.0,0.0,62,0.00,,,0.00,,2013-05-02 02:32:00,
2013-05-01 21:42:00,69.0,55.0,30.05,South,173,0.0,0.0,62,0.00,,,0.00,,2013-05-02 02:42:00,
2013-05-01 21:51:00,69.0,55.0,30.05,South,173,0.0,0.0,62,0.00,,,0.00,,2013-05-02 02:51:00,
2013-05-01 22:01:00,67.0,55.0,30.05,South,173,0.0,0.0,65,0.00,,,0.00,,2013-05-02 03:01:00,
2013-05-01 22:11:00,67.0,55.0,30.05,South,173,0.0,0.0,65,0.00,,,0.00,,2013-05-02 03:11:00,
2013-05-01 22:22:00,66.0,55.0,30.05,South,173,0.0,0.0,67,0.00,,,0.00,,2013-05-02 03:22:00,
2013-05-01 22:32:00,66.0,55.0,30.05,South,173,0.0,0.0,68,0.00,,,0.00,,2013-05-02 03:32:00,
2013-05-01 22:42:00,66.0,55.0,30.05,South,173,0.0,0.0,68,0.00,,,0.00,,2013-05-02 03:42:00,
2013-05-01 22:53:00,65.0,55.0,30.05,South,173,0.0,0.0,69,0.00,,,0.00,,2013-05-02 03:53:00,
2013-05-01 23:03:00,65.0,55.0,30.05,South,173,0.0,0.0,70,0.00,,,0.00,,2013-05-02 04:03:00,
2013-05-01 23:12:00,65.0,55.0,30.05,South,173,0.0,0.0,70,0.00,,,0.00,,2013-05-02 04:12:00,
2013-05-01 23:23:00,65.0,56.0,30.05,South,173,0.0,0.0,72,0.00,,,0.00,,2013-05-02 04:23:00,
2013-05-01 23:33:00,64.0,55.0,30.05,South,173,0.0,0.0,73,0.00,,,0.00,,2013-05-02 04:33:00,
2013-05-01 23:42:00,64.0,55.0,30.05,South,173,0.0,0.0,73,0.00,,,0.00,,2013-05-02 04:42:00,
2013-05-01 23:52:00,64.0,56.0,30.05,South,173,0.0,0.0,74,0.00,,,0.00,,2013-05-02 04:52:00,